SVA17B OERK-FSIA

Flight info

Callsign SVA17B
Flight time 3h 57m
Altitude 35000
Route AMBAG DCT HAZIR/N0487F360 V626 GIBAX P753 SYN/N0486F350 V650 RIN M559 PURKA/N0486F370 M559 VEDET DCT AXINA/N0485F360 UM314 UDLET/N0483F370 UM314 PRA DCT ROUTY ROUTY1D
Aircraft B77W/H-SDE1E2E3FGHIJ2J3J4J5M1RWXY/LB1D1

Departure

Time 2026-04-21 12:34
Airport King Khalid International Airport (OERK)

Arrival

Time 2026-04-21 16:31
Airport Seychelles International Airport (FSIA)
Time Latitude Longitude Altitude Speed Heading
2026-04-21 11:55 24.95887 46.70559 2035 ft 0 kts 265°
2026-04-21 12:20 24.95890 46.70581 2035 ft 4 kts 262°
2026-04-21 12:20 24.95893 46.70611 2036 ft 4 kts 263°
2026-04-21 12:20 24.95896 46.70641 2040 ft 4 kts 267°
2026-04-21 12:20 24.95894 46.70669 2041 ft 4 kts 300°
2026-04-21 12:21 24.95877 46.70685 2043 ft 4 kts 330°
2026-04-21 12:21 24.95854 46.70700 2044 ft 4 kts 330°
2026-04-21 12:21 24.95830 46.70715 2040 ft 4 kts 330°
2026-04-21 12:21 24.95807 46.70730 2044 ft 4 kts 330°
2026-04-21 12:22 24.95783 46.70745 2042 ft 4 kts 330°
2026-04-21 12:22 24.95761 46.70759 2044 ft 2 kts 330°
2026-04-21 12:22 24.95759 46.70760 2044 ft 0 kts 330°
2026-04-21 12:25 24.95761 46.70759 2035 ft 0 kts 330°
2026-04-21 12:25 24.95763 46.70758 2035 ft 0 kts 330°
2026-04-21 12:25 24.95764 46.70757 2035 ft 1 kts 330°
2026-04-21 12:26 24.95775 46.70750 2041 ft 7 kts 329°
2026-04-21 12:26 24.95840 46.70742 2044 ft 6 kts 42°
2026-04-21 12:26 24.95859 46.70765 2044 ft 6 kts 50°
2026-04-21 12:26 24.95887 46.70799 2040 ft 6 kts 41°
2026-04-21 12:27 24.95909 46.70840 2039 ft 8 kts 62°
2026-04-21 12:27 24.95930 46.70895 2044 ft 8 kts 65°
2026-04-21 12:27 24.95975 46.70920 2038 ft 8 kts 357°
2026-04-21 12:27 24.96028 46.70901 2043 ft 8 kts 334°
2026-04-21 12:28 24.96078 46.70872 2043 ft 8 kts 332°
2026-04-21 12:28 24.96128 46.70841 2044 ft 9 kts 329°
2026-04-21 12:28 24.96186 46.70803 2043 ft 11 kts 330°
2026-04-21 12:28 24.96268 46.70754 2044 ft 17 kts 331°
2026-04-21 12:29 24.96394 46.70675 2042 ft 23 kts 330°
2026-04-21 12:29 24.96529 46.70589 2040 ft 23 kts 330°
2026-04-21 12:29 24.96666 46.70502 2042 ft 23 kts 330°
2026-04-21 12:29 24.96803 46.70417 2041 ft 23 kts 330°
2026-04-21 12:30 24.96939 46.70331 2041 ft 23 kts 330°
2026-04-21 12:30 24.97075 46.70245 2043 ft 23 kts 330°
2026-04-21 12:30 24.97212 46.70160 2043 ft 23 kts 330°
2026-04-21 12:30 24.97347 46.70072 2034 ft 23 kts 329°
2026-04-21 12:31 24.97457 46.70001 2041 ft 11 kts 329°
2026-04-21 12:31 24.97511 46.69973 2037 ft 9 kts 352°
2026-04-21 12:31 24.97561 46.70003 2038 ft 9 kts 49°
2026-04-21 12:31 24.97591 46.70059 2042 ft 8 kts 59°
2026-04-21 12:32 24.97621 46.70114 2041 ft 9 kts 59°
2026-04-21 12:32 24.97658 46.70185 2041 ft 13 kts 67°
2026-04-21 12:32 24.97610 46.70251 2041 ft 9 kts 151°
2026-04-21 12:32 24.97605 46.70254 2041 ft 0 kts 152°
2026-04-21 12:33 24.97602 46.70256 2041 ft 0 kts 152°
2026-04-21 12:33 24.97438 46.70358 2040 ft 68 kts 150°
2026-04-21 12:33 24.96764 46.70787 2040 ft 154 kts 149°
2026-04-21 12:34 24.95614 46.71505 2085 ft 216 kts 150°
2026-04-21 12:34 24.94249 46.72343 2716 ft 235 kts 146°
2026-04-21 12:34 24.92718 46.73219 3662 ft 255 kts 150°
2026-04-21 12:34 24.91161 46.74068 5273 ft 250 kts 151°
2026-04-21 12:35 24.89610 46.74964 6224 ft 253 kts 152°
2026-04-21 12:35 24.88031 46.75885 6965 ft 259 kts 154°
2026-04-21 12:35 24.86404 46.76830 7583 ft 267 kts 155°
2026-04-21 12:35 24.84732 46.77796 8273 ft 274 kts 156°
2026-04-21 12:36 24.83033 46.78776 9041 ft 278 kts 158°
2026-04-21 12:36 24.81314 46.79767 9882 ft 279 kts 159°
2026-04-21 12:36 24.79579 46.80763 10510 ft 287 kts 159°
2026-04-21 12:36 24.77729 46.81815 10707 ft 312 kts 159°
2026-04-21 12:37 24.75751 46.82938 10889 ft 336 kts 158°
2026-04-21 12:37 24.73598 46.84163 11078 ft 360 kts 158°
2026-04-21 12:37 24.71334 46.85458 11528 ft 373 kts 158°
2026-04-21 12:37 24.69006 46.86794 12126 ft 382 kts 158°
2026-04-21 12:38 24.66634 46.88157 12817 ft 387 kts 158°
2026-04-21 12:38 24.64232 46.89536 13563 ft 392 kts 158°
2026-04-21 12:38 24.61794 46.90934 14200 ft 398 kts 158°
2026-04-21 12:38 24.59317 46.92351 14774 ft 404 kts 158°
2026-04-21 12:39 24.56802 46.93788 15394 ft 410 kts 158°
2026-04-21 12:39 24.54254 46.95243 16007 ft 416 kts 158°
2026-04-21 12:39 24.51660 46.96721 16612 ft 423 kts 158°
2026-04-21 12:39 24.49030 46.98220 17236 ft 429 kts 158°
2026-04-21 12:40 24.46365 46.99738 17866 ft 435 kts 159°
2026-04-21 12:40 24.43659 47.01279 18393 ft 440 kts 159°
2026-04-21 12:40 24.40925 47.02836 18978 ft 444 kts 158°
2026-04-21 12:40 24.38171 47.04404 19559 ft 448 kts 158°
2026-04-21 12:41 24.35396 47.05983 20143 ft 451 kts 158°
2026-04-21 12:41 24.32593 47.07577 20727 ft 455 kts 158°
2026-04-21 12:41 24.29774 47.09179 21295 ft 459 kts 158°
2026-04-21 12:41 24.26962 47.10776 21837 ft 463 kts 157°
2026-04-21 12:42 24.24098 47.12401 22361 ft 467 kts 157°
2026-04-21 12:42 24.21201 47.14044 22895 ft 470 kts 157°
2026-04-21 12:42 24.18282 47.15700 23382 ft 474 kts 157°
2026-04-21 12:42 24.15346 47.17363 23809 ft 477 kts 157°
2026-04-21 12:43 24.12386 47.19040 24242 ft 480 kts 157°
2026-04-21 12:43 24.09405 47.20727 24657 ft 483 kts 157°
2026-04-21 12:43 24.06408 47.22422 25075 ft 487 kts 157°
2026-04-21 12:43 24.03386 47.24131 25470 ft 491 kts 158°
2026-04-21 12:44 24.00342 47.25851 25883 ft 494 kts 158°
2026-04-21 12:44 23.97273 47.27584 26286 ft 497 kts 158°
2026-04-21 12:44 23.94193 47.29323 26679 ft 500 kts 158°
2026-04-21 12:44 23.91091 47.31073 27048 ft 503 kts 158°
2026-04-21 12:45 23.87965 47.32835 27399 ft 507 kts 158°
2026-04-21 12:45 23.84823 47.34606 27771 ft 510 kts 158°
2026-04-21 12:45 23.81655 47.36390 28102 ft 513 kts 158°
2026-04-21 12:45 23.78469 47.38183 28442 ft 516 kts 158°
2026-04-21 12:46 23.75273 47.39982 28786 ft 518 kts 158°
2026-04-21 12:46 23.72056 47.41791 29094 ft 521 kts 158°
2026-04-21 12:46 23.68867 47.43584 29443 ft 523 kts 158°
2026-04-21 12:46 23.65634 47.45401 29867 ft 522 kts 159°
2026-04-21 12:47 23.62402 47.47217 30239 ft 522 kts 159°
2026-04-21 12:47 23.59169 47.49032 30539 ft 523 kts 159°
2026-04-21 12:47 23.55926 47.50850 30814 ft 525 kts 159°
2026-04-21 12:47 23.52676 47.52670 31110 ft 527 kts 159°
2026-04-21 12:48 23.49411 47.54498 31393 ft 528 kts 159°
2026-04-21 12:48 23.46143 47.56328 31691 ft 529 kts 159°
2026-04-21 12:48 23.42869 47.58160 31972 ft 530 kts 159°
2026-04-21 12:48 23.39575 47.60002 32214 ft 532 kts 159°
2026-04-21 12:49 23.36280 47.61843 32470 ft 533 kts 159°
2026-04-21 12:49 23.32976 47.63689 32750 ft 534 kts 160°
2026-04-21 12:49 23.29665 47.65538 33054 ft 535 kts 160°
2026-04-21 12:49 23.26349 47.67389 33308 ft 536 kts 160°
2026-04-21 12:50 23.23030 47.69240 33552 ft 537 kts 160°
2026-04-21 12:50 23.19702 47.71095 33773 ft 539 kts 159°
2026-04-21 12:50 23.16361 47.72957 33970 ft 540 kts 160°
2026-04-21 12:50 23.13021 47.74816 34252 ft 538 kts 160°
2026-04-21 12:51 23.09639 47.76499 34531 ft 532 kts 166°
2026-04-21 12:51 23.06173 47.77862 34683 ft 528 kts 172°
2026-04-21 12:51 23.02636 47.78850 34741 ft 524 kts 175°
2026-04-21 12:52 22.95541 47.80650 34750 ft 522 kts 175°
2026-04-21 12:52 22.88485 47.82469 34742 ft 520 kts 175°
2026-04-21 12:53 22.81460 47.84317 34739 ft 519 kts 174°
2026-04-21 12:53 22.74443 47.86174 34729 ft 519 kts 174°
2026-04-21 12:54 22.67418 47.88033 34741 ft 520 kts 174°
2026-04-21 12:54 22.60423 47.89879 34739 ft 522 kts 174°
2026-04-21 12:55 22.53366 47.91738 34719 ft 523 kts 174°
2026-04-21 12:55 22.46288 47.93602 34724 ft 524 kts 174°
2026-04-21 12:56 22.39194 47.95469 34728 ft 525 kts 174°
2026-04-21 12:56 22.32093 47.97335 34708 ft 525 kts 174°
2026-04-21 12:57 22.24989 47.99201 34710 ft 525 kts 174°
2026-04-21 12:57 22.18038 48.01024 34706 ft 525 kts 174°
2026-04-21 12:58 22.10937 48.02884 34698 ft 525 kts 174°
2026-04-21 12:58 22.03845 48.04740 34701 ft 524 kts 174°
2026-04-21 12:59 21.96805 48.06580 34701 ft 524 kts 174°
2026-04-21 12:59 21.89717 48.08431 34697 ft 524 kts 174°
2026-04-21 13:00 21.82626 48.10281 34691 ft 524 kts 174°
2026-04-21 13:00 21.75527 48.12131 34698 ft 524 kts 174°
2026-04-21 13:01 21.68431 48.13978 34696 ft 525 kts 174°
2026-04-21 13:01 21.61333 48.15825 34684 ft 524 kts 174°
2026-04-21 13:02 21.54232 48.17670 34683 ft 524 kts 174°
2026-04-21 13:02 21.43589 48.20432 34673 ft 525 kts 174°
2026-04-21 13:03 21.36489 48.22272 34681 ft 524 kts 174°
2026-04-21 13:03 21.29392 48.24109 34683 ft 525 kts 174°
2026-04-21 13:04 21.22284 48.25947 34685 ft 525 kts 174°
2026-04-21 13:04 21.15227 48.27771 34677 ft 525 kts 174°
2026-04-21 13:05 21.08130 48.29604 34687 ft 525 kts 174°
2026-04-21 13:05 21.01027 48.31436 34687 ft 525 kts 174°
2026-04-21 13:06 20.93938 48.33262 34673 ft 525 kts 174°
2026-04-21 13:06 20.86835 48.35090 34688 ft 524 kts 174°
2026-04-21 13:07 20.79744 48.36914 34691 ft 525 kts 174°
2026-04-21 13:07 20.72639 48.38738 34681 ft 525 kts 173°
2026-04-21 13:08 20.65535 48.40562 34698 ft 525 kts 173°
2026-04-21 13:08 20.58434 48.42383 34698 ft 525 kts 173°
2026-04-21 13:09 20.51333 48.44202 34688 ft 525 kts 173°
2026-04-21 13:09 20.44236 48.46018 34693 ft 524 kts 173°
2026-04-21 13:10 20.37182 48.47822 34691 ft 524 kts 173°
2026-04-21 13:10 20.30084 48.49634 34694 ft 524 kts 173°
2026-04-21 13:11 20.22995 48.51444 34696 ft 523 kts 173°
2026-04-21 13:11 20.15912 48.53250 34696 ft 523 kts 173°
2026-04-21 13:12 20.08843 48.55051 34698 ft 522 kts 173°
2026-04-21 13:12 20.01779 48.56848 34698 ft 521 kts 173°
2026-04-21 13:13 19.95936 48.58334 34702 ft 520 kts 173°
2026-04-21 13:13 19.88898 48.60122 34704 ft 520 kts 173°
2026-04-21 13:14 19.81868 48.61906 34705 ft 519 kts 173°
2026-04-21 13:14 19.74837 48.63689 34699 ft 519 kts 173°
2026-04-21 13:15 19.67811 48.65469 34709 ft 519 kts 173°
2026-04-21 13:15 19.60767 48.67251 34705 ft 520 kts 173°
2026-04-21 13:16 19.53714 48.69034 34705 ft 521 kts 173°
2026-04-21 13:16 19.46656 48.70817 34713 ft 522 kts 173°
2026-04-21 13:17 19.39588 48.72602 34706 ft 522 kts 173°
2026-04-21 13:17 19.32561 48.74375 34690 ft 522 kts 172°
2026-04-21 13:18 19.25489 48.76158 34709 ft 522 kts 173°
2026-04-21 13:18 19.18420 48.77937 34711 ft 522 kts 173°
2026-04-21 13:19 19.11349 48.79716 34709 ft 522 kts 173°
2026-04-21 13:19 19.04278 48.81493 34702 ft 522 kts 173°
2026-04-21 13:20 18.97223 48.83265 34708 ft 522 kts 173°
2026-04-21 13:20 18.90153 48.85039 34703 ft 522 kts 172°
2026-04-21 13:21 18.83091 48.86809 34702 ft 521 kts 172°
2026-04-21 13:21 18.76076 48.88565 34710 ft 522 kts 172°
2026-04-21 13:22 18.69005 48.90334 34714 ft 522 kts 172°
2026-04-21 13:22 18.61942 48.92101 34711 ft 522 kts 172°
2026-04-21 13:23 18.54871 48.93867 34710 ft 522 kts 172°
2026-04-21 13:23 18.47790 48.95635 34716 ft 523 kts 172°
2026-04-21 13:24 18.40693 48.97405 34724 ft 524 kts 172°
2026-04-21 13:24 18.33597 48.99173 34710 ft 524 kts 172°
2026-04-21 13:25 18.26633 49.00907 34727 ft 525 kts 172°
2026-04-21 13:25 18.19521 49.02676 34728 ft 526 kts 172°
2026-04-21 13:26 18.12396 49.04447 34731 ft 526 kts 172°
2026-04-21 13:26 18.05315 49.06206 34739 ft 526 kts 172°
2026-04-21 13:27 17.98194 49.07973 34743 ft 527 kts 172°
2026-04-21 13:27 17.91055 49.09744 34737 ft 527 kts 172°
2026-04-21 13:28 17.83917 49.11513 34737 ft 526 kts 172°
2026-04-21 13:28 17.76753 49.12574 34750 ft 514 kts 185°
2026-04-21 13:29 17.69699 49.12074 34751 ft 502 kts 197°
2026-04-21 13:29 17.62846 49.10695 34761 ft 502 kts 198°
2026-04-21 13:30 17.55996 49.09307 34756 ft 502 kts 197°
2026-04-21 13:30 17.49118 49.07957 34781 ft 503 kts 197°
2026-04-21 13:31 17.42220 49.06626 34777 ft 503 kts 197°
2026-04-21 13:31 17.35335 49.05301 34775 ft 503 kts 197°
2026-04-21 13:32 17.28503 49.03986 34788 ft 502 kts 197°
2026-04-21 13:32 17.21629 49.02661 34788 ft 502 kts 197°
2026-04-21 13:33 17.14751 49.01337 34790 ft 502 kts 197°
2026-04-21 13:33 17.07879 49.00014 34807 ft 502 kts 197°
2026-04-21 13:34 17.01013 48.98694 34797 ft 502 kts 197°
2026-04-21 13:34 16.94154 48.97376 34810 ft 502 kts 197°
2026-04-21 13:35 16.87285 48.96058 34811 ft 502 kts 197°
2026-04-21 13:35 16.80418 48.94740 34817 ft 502 kts 197°
2026-04-21 13:36 16.73552 48.93424 34830 ft 502 kts 196°
2026-04-21 13:36 16.66680 48.92107 34842 ft 502 kts 196°
2026-04-21 13:37 16.59819 48.90794 34844 ft 502 kts 196°
2026-04-21 13:37 16.52982 48.89493 34849 ft 502 kts 196°
2026-04-21 13:38 16.46114 48.88188 34837 ft 502 kts 196°
2026-04-21 13:38 16.39236 48.86881 34848 ft 502 kts 196°
2026-04-21 13:39 16.32354 48.85572 34852 ft 502 kts 196°
2026-04-21 13:39 16.25489 48.84247 34855 ft 502 kts 196°
2026-04-21 13:40 16.18617 48.82918 34851 ft 503 kts 196°
2026-04-21 13:40 16.11741 48.81592 34835 ft 503 kts 196°
2026-04-21 13:41 16.04845 48.80264 34833 ft 503 kts 196°
2026-04-21 13:41 15.97949 48.79388 34812 ft 511 kts 182°
2026-04-21 13:42 15.90937 48.80874 34833 ft 523 kts 161°
2026-04-21 13:42 15.84308 48.84045 34843 ft 525 kts 158°
2026-04-21 13:43 15.77689 48.87312 34853 ft 526 kts 158°
2026-04-21 13:43 15.71043 48.90497 34845 ft 527 kts 158°
2026-04-21 13:44 15.64366 48.93641 34874 ft 527 kts 159°
2026-04-21 13:44 15.57693 48.96777 34885 ft 525 kts 159°
2026-04-21 13:45 15.51056 48.99902 34890 ft 523 kts 159°
2026-04-21 13:45 15.44446 49.03013 34892 ft 521 kts 159°
2026-04-21 13:46 15.37849 49.06117 34906 ft 520 kts 159°
2026-04-21 13:46 15.31300 49.09195 34919 ft 521 kts 158°
2026-04-21 13:47 15.24687 49.12297 34924 ft 522 kts 159°
2026-04-21 13:47 15.18054 49.15389 34929 ft 523 kts 158°
2026-04-21 13:48 15.11408 49.18484 34936 ft 524 kts 158°
2026-04-21 13:48 15.04745 49.21589 34929 ft 525 kts 158°
2026-04-21 13:49 14.98087 49.24691 34916 ft 525 kts 158°
2026-04-21 13:49 14.91418 49.27795 34909 ft 525 kts 158°
2026-04-21 13:50 14.84760 49.30891 34912 ft 524 kts 158°
2026-04-21 13:50 14.78109 49.33985 34898 ft 524 kts 158°
2026-04-21 13:51 14.71456 49.37077 34869 ft 523 kts 158°
2026-04-21 13:51 14.65059 49.40571 34874 ft 525 kts 148°
2026-04-21 13:52 14.59164 49.45050 34868 ft 526 kts 144°
2026-04-21 13:52 14.53328 49.49604 34848 ft 526 kts 144°
2026-04-21 13:53 14.47450 49.54120 34851 ft 526 kts 144°
2026-04-21 13:53 14.41560 49.58607 34844 ft 527 kts 145°
2026-04-21 13:54 14.35664 49.63100 34843 ft 527 kts 145°
2026-04-21 13:54 14.29757 49.67602 34846 ft 527 kts 145°
2026-04-21 13:55 14.23852 49.72094 34838 ft 528 kts 144°
2026-04-21 13:55 14.17934 49.76579 34843 ft 528 kts 144°
2026-04-21 13:56 14.12016 49.81061 34836 ft 528 kts 144°
2026-04-21 13:56 14.06142 49.85512 34826 ft 528 kts 144°
2026-04-21 13:57 14.00227 49.89992 34826 ft 527 kts 144°
2026-04-21 13:57 13.94313 49.94467 34824 ft 527 kts 144°
2026-04-21 13:58 13.88429 49.98967 34825 ft 527 kts 144°
2026-04-21 13:58 13.82689 50.03375 34826 ft 527 kts 144°
2026-04-21 13:59 13.76804 50.07884 34816 ft 527 kts 144°
2026-04-21 13:59 13.70942 50.12406 34817 ft 527 kts 143°
2026-04-21 14:00 13.65088 50.16923 34831 ft 526 kts 143°
2026-04-21 14:00 13.60171 50.20695 34818 ft 526 kts 144°
2026-04-21 14:01 13.54328 50.25156 34824 ft 526 kts 144°
2026-04-21 14:01 13.48449 50.29643 34829 ft 526 kts 144°
2026-04-21 14:02 13.42567 50.34136 34812 ft 526 kts 144°
2026-04-21 14:03 13.33754 50.40863 34811 ft 526 kts 144°
2026-04-21 14:03 13.27876 50.45347 34820 ft 526 kts 143°
2026-04-21 14:04 13.22001 50.49826 34823 ft 526 kts 143°
2026-04-21 14:04 13.16122 50.54305 34820 ft 526 kts 143°
2026-04-21 14:05 13.10245 50.58782 34816 ft 526 kts 143°
2026-04-21 14:05 13.04362 50.63264 34822 ft 526 kts 143°
2026-04-21 14:06 12.98498 50.67728 34822 ft 526 kts 143°
2026-04-21 14:06 12.92619 50.72201 34821 ft 526 kts 143°
2026-04-21 14:07 12.86739 50.76672 34814 ft 526 kts 143°
2026-04-21 14:07 12.80897 50.81111 34824 ft 526 kts 143°
2026-04-21 14:08 12.75017 50.85578 34814 ft 526 kts 143°
2026-04-21 14:08 12.69143 50.90038 34817 ft 526 kts 143°
2026-04-21 14:09 12.63264 50.94498 34819 ft 526 kts 143°
2026-04-21 14:09 12.57384 50.98950 34820 ft 526 kts 143°
2026-04-21 14:10 12.51638 51.03293 34816 ft 525 kts 143°
2026-04-21 14:10 12.45757 51.07739 34822 ft 525 kts 143°
2026-04-21 14:11 12.39878 51.12181 34817 ft 525 kts 143°
2026-04-21 14:11 12.33999 51.16622 34825 ft 525 kts 143°
2026-04-21 14:12 12.28117 51.21062 34823 ft 525 kts 143°
2026-04-21 14:12 12.22238 51.25498 34821 ft 525 kts 143°
2026-04-21 14:13 12.16403 51.29898 34822 ft 525 kts 143°
2026-04-21 14:13 12.10524 51.34329 34830 ft 524 kts 143°
2026-04-21 14:14 12.04648 51.38757 34828 ft 524 kts 143°
2026-04-21 14:14 11.98743 51.43119 34834 ft 524 kts 144°
2026-04-21 14:15 11.92724 51.47340 34834 ft 525 kts 145°
2026-04-21 14:15 11.86685 51.51545 34836 ft 525 kts 145°
2026-04-21 14:16 11.80699 51.55744 34839 ft 525 kts 145°
2026-04-21 14:16 11.74683 51.59982 34841 ft 525 kts 145°
2026-04-21 14:17 11.68671 51.64222 34839 ft 525 kts 145°
2026-04-21 14:17 11.62658 51.68459 34838 ft 525 kts 145°
2026-04-21 14:18 11.56645 51.72691 34843 ft 525 kts 145°
2026-04-21 14:18 11.50629 51.76921 34839 ft 525 kts 144°
2026-04-21 14:19 11.44608 51.81154 34847 ft 525 kts 144°
2026-04-21 14:19 11.38588 51.85383 34843 ft 525 kts 144°
2026-04-21 14:20 11.32610 51.89581 34846 ft 525 kts 144°
2026-04-21 14:20 11.26595 51.93803 34842 ft 525 kts 144°
2026-04-21 14:21 11.20579 51.98024 34845 ft 525 kts 144°
2026-04-21 14:21 11.14690 52.02152 34847 ft 525 kts 144°
2026-04-21 14:22 11.08673 52.06370 34845 ft 525 kts 144°
2026-04-21 14:22 11.02659 52.10582 34848 ft 525 kts 144°
2026-04-21 14:23 10.96650 52.14789 34851 ft 524 kts 144°
2026-04-21 14:23 10.90638 52.18996 34849 ft 524 kts 144°
2026-04-21 14:24 10.84624 52.23201 34850 ft 524 kts 144°
2026-04-21 14:24 10.78645 52.27381 34849 ft 524 kts 144°
2026-04-21 14:25 10.72631 52.31583 34848 ft 524 kts 144°
2026-04-21 14:25 10.66616 52.35783 34849 ft 524 kts 144°
2026-04-21 14:26 10.60608 52.39977 34854 ft 524 kts 144°
2026-04-21 14:26 10.54600 52.44169 34851 ft 524 kts 144°
2026-04-21 14:27 10.48592 52.48358 34850 ft 524 kts 144°
2026-04-21 14:27 10.42586 52.52545 34853 ft 523 kts 145°
2026-04-21 14:28 10.36580 52.56729 34849 ft 523 kts 145°
2026-04-21 14:28 10.30583 52.60905 34853 ft 523 kts 145°
2026-04-21 14:29 10.24610 52.65062 34854 ft 523 kts 145°
2026-04-21 14:29 10.18603 52.69241 34851 ft 523 kts 145°
2026-04-21 14:30 10.12604 52.73413 34852 ft 522 kts 145°
2026-04-21 14:30 10.06603 52.77584 34858 ft 522 kts 145°
2026-04-21 14:31 10.00614 52.81745 34852 ft 522 kts 145°
2026-04-21 14:31 9.94631 52.85899 34854 ft 522 kts 145°
2026-04-21 14:32 9.88641 52.90057 34858 ft 521 kts 145°
2026-04-21 14:32 9.82655 52.94210 34857 ft 521 kts 145°
2026-04-21 14:33 9.76711 52.98332 34860 ft 521 kts 145°
2026-04-21 14:33 9.70853 53.02392 34860 ft 520 kts 145°
2026-04-21 14:34 9.64875 53.06535 34863 ft 520 kts 145°
2026-04-21 14:34 9.58895 53.10676 34859 ft 520 kts 145°
2026-04-21 14:35 9.52922 53.14811 34857 ft 520 kts 145°
2026-04-21 14:35 9.46954 53.18940 34860 ft 519 kts 145°
2026-04-21 14:36 9.40989 53.23067 34862 ft 519 kts 145°
2026-04-21 14:36 9.35021 53.27193 34859 ft 519 kts 145°
2026-04-21 14:37 9.29047 53.31321 34858 ft 519 kts 145°
2026-04-21 14:37 9.23073 53.35448 34861 ft 520 kts 145°
2026-04-21 14:38 9.17099 53.39573 34864 ft 520 kts 145°
2026-04-21 14:38 9.11160 53.43672 34862 ft 520 kts 145°
2026-04-21 14:39 9.05187 53.47793 34860 ft 520 kts 145°
2026-04-21 14:39 8.99221 53.51907 34860 ft 519 kts 145°
2026-04-21 14:40 8.93244 53.56028 34863 ft 519 kts 145°
2026-04-21 14:40 8.87278 53.60139 34862 ft 519 kts 145°
2026-04-21 14:41 8.81315 53.64246 34860 ft 518 kts 145°
2026-04-21 14:41 8.75358 53.68348 34860 ft 518 kts 145°
2026-04-21 14:42 8.69403 53.72447 34863 ft 518 kts 145°
2026-04-21 14:42 8.63448 53.76544 34861 ft 517 kts 145°
2026-04-21 14:43 8.57490 53.80642 34861 ft 518 kts 145°
2026-04-21 14:43 8.51576 53.84707 34861 ft 517 kts 145°
2026-04-21 14:44 8.45614 53.88805 34859 ft 517 kts 145°
2026-04-21 14:44 8.39666 53.92891 34861 ft 517 kts 145°
2026-04-21 14:45 8.33715 53.96977 34861 ft 517 kts 145°
2026-04-21 14:45 8.27903 54.00967 34862 ft 517 kts 145°
2026-04-21 14:46 8.21945 54.05055 34863 ft 517 kts 145°
2026-04-21 14:46 8.16996 54.08450 34863 ft 517 kts 145°
2026-04-21 14:47 8.11042 54.12533 34861 ft 517 kts 145°
2026-04-21 14:47 8.05090 54.16613 34866 ft 517 kts 145°
2026-04-21 14:48 7.99151 54.20682 34862 ft 517 kts 145°
2026-04-21 14:48 7.93202 54.24757 34858 ft 517 kts 145°
2026-04-21 14:49 7.87255 54.28830 34857 ft 516 kts 145°
2026-04-21 14:49 7.81308 54.32900 34860 ft 516 kts 145°
2026-04-21 14:50 7.75366 54.36966 34861 ft 516 kts 145°
2026-04-21 14:50 7.69464 54.41003 34862 ft 516 kts 145°
2026-04-21 14:51 7.63524 54.45065 34858 ft 516 kts 145°
2026-04-21 14:51 7.57584 54.49125 34858 ft 515 kts 145°
2026-04-21 14:52 7.51656 54.53176 34864 ft 515 kts 145°
2026-04-21 14:52 7.45718 54.57233 34860 ft 515 kts 145°
2026-04-21 14:53 7.39778 54.61288 34865 ft 515 kts 145°
2026-04-21 14:53 7.33846 54.65338 34858 ft 515 kts 145°
2026-04-21 14:54 7.27957 54.69357 34857 ft 514 kts 145°
2026-04-21 14:54 7.22031 54.73400 34863 ft 514 kts 145°
2026-04-21 14:55 7.16101 54.77445 34860 ft 514 kts 145°
2026-04-21 14:55 7.10178 54.81482 34862 ft 514 kts 145°
2026-04-21 14:56 7.04256 54.85519 34856 ft 514 kts 145°
2026-04-21 14:56 6.98386 54.89519 34862 ft 514 kts 145°
2026-04-21 14:57 6.92470 54.93550 34861 ft 513 kts 145°
2026-04-21 14:57 6.86514 54.97504 34850 ft 512 kts 152°
2026-04-21 14:58 6.79803 54.99836 34870 ft 512 kts 170°
2026-04-21 14:58 6.72866 55.00183 34872 ft 510 kts 181°
2026-04-21 14:59 6.65744 55.00072 34862 ft 512 kts 181°
2026-04-21 14:59 6.58605 55.00001 34862 ft 514 kts 181°
2026-04-21 15:00 6.51440 54.99987 34864 ft 515 kts 181°
2026-04-21 15:00 6.44266 54.99994 34867 ft 515 kts 181°
2026-04-21 15:01 6.37088 54.99999 34865 ft 515 kts 181°
2026-04-21 15:01 6.29921 55.00000 34862 ft 515 kts 181°
2026-04-21 15:02 6.22761 55.00000 34860 ft 514 kts 180°
2026-04-21 15:02 6.15602 55.00000 34862 ft 514 kts 180°
2026-04-21 15:03 6.08454 55.00000 34861 ft 513 kts 180°
2026-04-21 15:03 6.01316 55.00000 34864 ft 513 kts 180°
2026-04-21 15:04 5.94197 55.00000 34865 ft 513 kts 180°
2026-04-21 15:04 5.87057 54.99999 34861 ft 513 kts 180°
2026-04-21 15:05 5.79966 55.00000 34863 ft 513 kts 180°
2026-04-21 15:05 5.69252 55.00000 34863 ft 513 kts 180°
2026-04-21 15:06 5.62114 55.00000 34862 ft 513 kts 180°
2026-04-21 15:06 5.54981 55.00000 34864 ft 513 kts 180°
2026-04-21 15:07 5.47841 55.00000 34863 ft 512 kts 180°
2026-04-21 15:07 5.40755 55.00023 34865 ft 512 kts 180°
2026-04-21 15:08 5.33645 55.00504 34863 ft 512 kts 172°
2026-04-21 15:08 5.26602 55.01610 34871 ft 512 kts 171°
2026-04-21 15:09 5.19521 55.02434 34860 ft 512 kts 177°
2026-04-21 15:09 5.12398 55.02556 34866 ft 512 kts 181°
2026-04-21 15:10 5.05271 55.02618 34858 ft 512 kts 177°
2026-04-21 15:10 4.98208 55.03293 34863 ft 512 kts 172°
2026-04-21 15:11 4.91191 55.04283 34860 ft 512 kts 173°
2026-04-21 15:11 4.84095 55.04852 34860 ft 511 kts 178°
2026-04-21 15:12 4.76976 55.04962 34858 ft 511 kts 179°
2026-04-21 15:12 4.69871 55.05282 34859 ft 511 kts 175°
2026-04-21 15:13 4.62800 55.06077 34862 ft 511 kts 173°
2026-04-21 15:13 4.55727 55.06834 34858 ft 511 kts 176°
2026-04-21 15:14 4.48629 55.07161 34862 ft 511 kts 179°
2026-04-21 15:14 4.41522 55.07422 34859 ft 511 kts 176°
2026-04-21 15:15 4.34434 55.08025 34861 ft 511 kts 174°
2026-04-21 15:15 4.27402 55.08674 34859 ft 511 kts 176°
2026-04-21 15:16 4.20286 55.09026 34861 ft 511 kts 178°
2026-04-21 15:16 4.13193 55.09389 34859 ft 511 kts 175°
2026-04-21 15:17 4.06124 55.10133 34859 ft 511 kts 172°
2026-04-21 15:17 3.99102 55.11114 34861 ft 510 kts 173°
2026-04-21 15:18 3.92029 55.11717 34857 ft 510 kts 178°
2026-04-21 15:18 3.84930 55.11836 34862 ft 509 kts 180°
2026-04-21 15:19 3.71603 55.12671 34860 ft 509 kts 173°
2026-04-21 15:20 3.64570 55.13603 34859 ft 509 kts 173°
2026-04-21 15:20 3.57518 55.14200 34860 ft 509 kts 178°
2026-04-21 15:21 3.50440 55.14364 34864 ft 509 kts 179°
2026-04-21 15:21 3.43365 55.14610 34861 ft 509 kts 176°
2026-04-21 15:22 3.36320 55.15312 34863 ft 509 kts 173°
2026-04-21 15:22 3.29300 55.16181 34863 ft 509 kts 174°
2026-04-21 15:23 3.22236 55.16710 34864 ft 509 kts 178°
2026-04-21 15:23 3.15162 55.16896 34864 ft 509 kts 179°
2026-04-21 15:24 3.08083 55.17224 34862 ft 509 kts 175°
2026-04-21 15:24 3.01083 55.17945 34864 ft 509 kts 173°
2026-04-21 15:25 2.94065 55.18742 34864 ft 509 kts 175°
2026-04-21 15:25 2.86994 55.19209 34866 ft 509 kts 178°
2026-04-21 15:26 2.79911 55.19430 34867 ft 509 kts 178°
2026-04-21 15:26 2.72841 55.19843 34890 ft 510 kts 175°
2026-04-21 15:27 2.69305 55.20187 35113 ft 511 kts 174°
2026-04-21 15:27 2.65782 55.20583 35498 ft 507 kts 173°
2026-04-21 15:27 2.62286 55.20967 35917 ft 504 kts 174°
2026-04-21 15:27 2.58798 55.21289 36318 ft 501 kts 175°
2026-04-21 15:28 2.55333 55.21523 36659 ft 499 kts 177°
2026-04-21 15:28 2.51858 55.21683 36816 ft 501 kts 178°
2026-04-21 15:28 2.44879 55.21953 36859 ft 500 kts 177°
2026-04-21 15:29 2.37956 55.22445 36865 ft 497 kts 174°
2026-04-21 15:29 2.31133 55.23147 36869 ft 495 kts 174°
2026-04-21 15:30 2.24277 55.23745 36868 ft 495 kts 176°
2026-04-21 15:30 2.17398 55.24097 36876 ft 495 kts 178°
2026-04-21 15:31 2.10513 55.24442 36866 ft 495 kts 176°
2026-04-21 15:31 2.03625 55.25007 36873 ft 495 kts 174°
2026-04-21 15:32 1.96785 55.25656 36874 ft 496 kts 175°
2026-04-21 15:32 1.89935 55.26140 36875 ft 496 kts 177°
2026-04-21 15:33 1.83040 55.26493 36873 ft 496 kts 177°
2026-04-21 15:33 1.76142 55.26947 36875 ft 497 kts 175°
2026-04-21 15:34 1.69245 55.27537 36884 ft 498 kts 175°
2026-04-21 15:34 1.62348 55.28056 36867 ft 495 kts 176°
2026-04-21 15:35 1.55477 55.28443 36872 ft 494 kts 177°
2026-04-21 15:35 1.48618 55.28869 36876 ft 493 kts 176°
2026-04-21 15:36 1.41809 55.29325 36879 ft 494 kts 177°
2026-04-21 15:36 1.35351 55.29736 36878 ft 495 kts 175°
2026-04-21 15:37 1.28499 55.30517 36879 ft 496 kts 172°
2026-04-21 15:37 1.21652 55.31413 36873 ft 497 kts 174°
2026-04-21 15:38 1.14742 55.31862 36880 ft 498 kts 179°
2026-04-21 15:38 1.07802 55.31955 36879 ft 499 kts 179°
2026-04-21 15:39 1.00857 55.32284 36879 ft 500 kts 175°
2026-04-21 15:39 0.99754 55.32384 36879 ft 500 kts 174°
2026-04-21 15:41 0.72542 55.34454 36876 ft 498 kts 178°
2026-04-21 15:41 0.65613 55.34909 36876 ft 498 kts 174°
2026-04-21 15:42 0.58732 55.35713 36878 ft 497 kts 173°
2026-04-21 15:42 0.51855 55.36408 36875 ft 496 kts 176°
2026-04-21 15:43 0.44952 55.36719 36878 ft 496 kts 179°
2026-04-21 15:43 0.38103 55.36936 36875 ft 496 kts 177°
2026-04-21 15:44 0.31231 55.37466 36880 ft 495 kts 174°
2026-04-21 15:44 0.24371 55.38234 36880 ft 496 kts 174°
2026-04-21 15:45 0.17504 55.38827 36880 ft 496 kts 177°
2026-04-21 15:45 0.10610 55.39118 36881 ft 496 kts 178°
2026-04-21 15:46 0.03711 55.39429 36879 ft 496 kts 176°
2026-04-21 15:46 -0.03148 55.40025 36877 ft 497 kts 174°
2026-04-21 15:47 -0.10024 55.40730 36881 ft 497 kts 175°
2026-04-21 15:47 -0.16925 55.41220 36879 ft 497 kts 177°
2026-04-21 15:48 -0.23837 55.41523 36880 ft 497 kts 178°
2026-04-21 15:48 -0.30709 55.41944 36879 ft 498 kts 175°
2026-04-21 15:49 -0.37608 55.42575 36879 ft 498 kts 174°
2026-04-21 15:49 -0.44518 55.43171 36880 ft 498 kts 176°
2026-04-21 15:50 -0.51434 55.43569 36883 ft 498 kts 177°
2026-04-21 15:50 -0.58360 55.43943 36882 ft 498 kts 176°
2026-04-21 15:51 -0.65275 55.44473 36881 ft 498 kts 175°
2026-04-21 15:51 -0.72181 55.45033 36882 ft 498 kts 176°
2026-04-21 15:52 -0.79053 55.45448 36882 ft 498 kts 177°
2026-04-21 15:52 -0.85971 55.45830 36882 ft 498 kts 176°
2026-04-21 15:53 -0.92886 55.46272 36882 ft 498 kts 175°
2026-04-21 15:53 -0.99784 55.46949 36879 ft 498 kts 173°
2026-04-21 15:54 -1.05476 55.47727 36885 ft 498 kts 173°
2026-04-21 15:54 -1.12374 55.48423 36881 ft 498 kts 177°
2026-04-21 15:55 -1.19310 55.48628 36887 ft 498 kts 180°
2026-04-21 15:55 -1.26246 55.48771 36881 ft 499 kts 178°
2026-04-21 15:56 -1.33168 55.49355 36885 ft 499 kts 173°
2026-04-21 15:56 -1.40063 55.50245 36886 ft 500 kts 173°
2026-04-21 15:57 -1.46987 55.50890 36884 ft 500 kts 177°
2026-04-21 15:57 -1.53946 55.51101 36884 ft 500 kts 179°
2026-04-21 15:58 -1.60919 55.51304 36881 ft 500 kts 177°
2026-04-21 15:58 -1.67852 55.51918 36886 ft 500 kts 173°
2026-04-21 15:59 -1.74710 55.52763 36887 ft 499 kts 174°
2026-04-21 15:59 -1.81625 55.53357 36881 ft 498 kts 178°
2026-04-21 16:00 -1.88563 55.53576 36884 ft 497 kts 179°
2026-04-21 16:00 -1.95473 55.53833 36888 ft 496 kts 177°
2026-04-21 16:01 -2.02328 55.54464 36888 ft 496 kts 174°
2026-04-21 16:01 -2.09178 55.55265 36887 ft 495 kts 174°
2026-04-21 16:02 -2.16045 55.55802 36891 ft 495 kts 178°
2026-04-21 16:02 -2.22879 55.56032 36892 ft 494 kts 179°
2026-04-21 16:03 -2.29752 55.56346 36888 ft 494 kts 176°
2026-04-21 16:03 -2.36603 55.56997 36893 ft 494 kts 174°
2026-04-21 16:04 -2.43407 55.57745 36573 ft 485 kts 175°
2026-04-21 16:04 -2.46737 55.58028 35866 ft 477 kts 177°
2026-04-21 16:04 -2.50049 55.58225 34916 ft 476 kts 178°
2026-04-21 16:05 -2.53368 55.58354 33818 ft 479 kts 179°
2026-04-21 16:05 -2.56719 55.58461 32460 ft 484 kts 179°
2026-04-21 16:05 -2.60111 55.58601 31076 ft 491 kts 178°
2026-04-21 16:05 -2.63575 55.58819 29818 ft 506 kts 176°
2026-04-21 16:06 -2.67114 55.59127 28488 ft 515 kts 175°
2026-04-21 16:06 -2.70694 55.59500 27309 ft 519 kts 174°
2026-04-21 16:06 -2.74302 55.59889 26239 ft 521 kts 175°
2026-04-21 16:06 -2.77905 55.60226 25246 ft 520 kts 177°
2026-04-21 16:07 -2.81469 55.60227 24464 ft 515 kts 185°
2026-04-21 16:07 -2.84898 55.59848 24653 ft 476 kts 188°
2026-04-21 16:07 -2.88088 55.59447 24680 ft 452 kts 188°
2026-04-21 16:07 -2.91157 55.59081 24712 ft 434 kts 187°
2026-04-21 16:08 -2.96971 55.58487 24749 ft 412 kts 186°
2026-04-21 16:08 -2.99860 55.58227 24805 ft 423 kts 186°
2026-04-21 16:08 -3.02806 55.57973 24807 ft 431 kts 186°
2026-04-21 16:09 -3.05797 55.57721 24803 ft 432 kts 186°
2026-04-21 16:09 -3.08785 55.57474 24793 ft 430 kts 186°
2026-04-21 16:09 -3.09793 55.57391 24784 ft 429 kts 186°
2026-04-21 16:09 -3.15196 55.56944 24214 ft 423 kts 186°
2026-04-21 16:10 -3.18137 55.56700 23816 ft 419 kts 185°
2026-04-21 16:10 -3.21035 55.56459 23407 ft 417 kts 185°
2026-04-21 16:10 -3.23922 55.56219 22918 ft 414 kts 185°
2026-04-21 16:10 -3.26738 55.55984 22483 ft 410 kts 185°
2026-04-21 16:11 -3.29578 55.55747 22061 ft 407 kts 185°
2026-04-21 16:11 -3.32390 55.55513 21639 ft 404 kts 185°
2026-04-21 16:11 -3.35180 55.55280 21210 ft 401 kts 185°
2026-04-21 16:11 -3.37962 55.55048 20783 ft 398 kts 185°
2026-04-21 16:12 -3.39786 55.54896 20502 ft 396 kts 185°
2026-04-21 16:12 -3.43440 55.54591 19963 ft 393 kts 185°
2026-04-21 16:12 -3.46153 55.54365 19565 ft 390 kts 185°
2026-04-21 16:12 -3.48848 55.54140 19202 ft 386 kts 185°
2026-04-21 16:13 -3.51513 55.53917 18846 ft 383 kts 185°
2026-04-21 16:13 -3.54157 55.53696 18460 ft 380 kts 185°
2026-04-21 16:13 -3.56753 55.53480 18082 ft 377 kts 185°
2026-04-21 16:13 -3.59397 55.53259 17638 ft 375 kts 185°
2026-04-21 16:14 -3.61110 55.53117 17352 ft 373 kts 185°
2026-04-21 16:14 -3.64568 55.52828 16761 ft 371 kts 185°
2026-04-21 16:14 -3.67131 55.52614 16331 ft 369 kts 185°
2026-04-21 16:14 -3.68826 55.52473 16052 ft 368 kts 185°
2026-04-21 16:15 -3.71369 55.52261 15651 ft 366 kts 185°
2026-04-21 16:15 -3.73901 55.52050 15235 ft 364 kts 185°
2026-04-21 16:15 -3.74747 55.51979 15103 ft 363 kts 185°
2026-04-21 16:15 -3.78078 55.51701 14574 ft 361 kts 185°
2026-04-21 16:16 -3.80571 55.51493 14200 ft 358 kts 185°
2026-04-21 16:16 -3.83022 55.51288 13740 ft 349 kts 185°
2026-04-21 16:16 -3.85439 55.51086 12874 ft 348 kts 185°
2026-04-21 16:16 -3.87030 55.50953 12343 ft 346 kts 185°
2026-04-21 16:17 -3.91013 55.50620 11092 ft 339 kts 185°
2026-04-21 16:17 -3.92564 55.50491 10633 ft 336 kts 185°
2026-04-21 16:17 -3.95619 55.50236 9743 ft 330 kts 185°
2026-04-21 16:17 -3.97876 55.50048 9249 ft 314 kts 185°
2026-04-21 16:18 -3.99977 55.49873 9035 ft 293 kts 185°
2026-04-21 16:18 -4.01944 55.49709 8908 ft 279 kts 185°
2026-04-21 16:18 -4.03830 55.49551 8856 ft 268 kts 185°
2026-04-21 16:18 -4.05677 55.49397 8614 ft 265 kts 185°
2026-04-21 16:19 -4.07513 55.49243 8272 ft 264 kts 185°
2026-04-21 16:19 -4.09334 55.49091 7948 ft 262 kts 185°
2026-04-21 16:19 -4.11154 55.48938 7558 ft 263 kts 185°
2026-04-21 16:19 -4.12977 55.48786 7279 ft 258 kts 185°
2026-04-21 16:20 -4.14697 55.48642 7161 ft 237 kts 185°
2026-04-21 16:20 -4.16270 55.48511 6884 ft 220 kts 185°
2026-04-21 16:20 -4.17776 55.48385 6373 ft 215 kts 185°
2026-04-21 16:21 -4.22523 55.47989 4526 ft 211 kts 185°
2026-04-21 16:21 -4.23969 55.47868 4112 ft 197 kts 185°
2026-04-21 16:21 -4.25309 55.47756 4259 ft 202 kts 186°
2026-04-21 16:22 -4.26759 55.47634 4332 ft 215 kts 185°
2026-04-21 16:22 -4.28261 55.47508 4329 ft 216 kts 185°
2026-04-21 16:22 -4.29753 55.47383 4315 ft 213 kts 185°
2026-04-21 16:22 -4.31200 55.47263 4319 ft 210 kts 185°
2026-04-21 16:23 -4.32658 55.47141 4326 ft 211 kts 185°
2026-04-21 16:23 -4.34127 55.47018 4337 ft 212 kts 185°
2026-04-21 16:23 -4.35603 55.46894 4340 ft 213 kts 185°
2026-04-21 16:23 -4.37086 55.46770 4339 ft 213 kts 185°
2026-04-21 16:24 -4.38552 55.46648 4174 ft 211 kts 185°
2026-04-21 16:24 -4.40016 55.46525 3962 ft 210 kts 185°
2026-04-21 16:24 -4.41474 55.46403 3741 ft 210 kts 185°
2026-04-21 16:24 -4.42928 55.46300 3534 ft 209 kts 181°
2026-04-21 16:25 -4.44373 55.46294 3331 ft 206 kts 179°
2026-04-21 16:25 -4.45819 55.46306 3185 ft 208 kts 179°
2026-04-21 16:25 -4.47267 55.46319 3100 ft 207 kts 179°
2026-04-21 16:25 -4.48711 55.46328 3004 ft 208 kts 179°
2026-04-21 16:26 -4.50152 55.46336 2909 ft 208 kts 180°
2026-04-21 16:26 -4.51590 55.46342 2868 ft 205 kts 180°
2026-04-21 16:26 -4.52999 55.46347 2867 ft 201 kts 180°
2026-04-21 16:26 -4.54344 55.46351 2684 ft 187 kts 179°
2026-04-21 16:27 -4.55615 55.46355 2327 ft 179 kts 179°
2026-04-21 16:27 -4.56862 55.46360 2238 ft 184 kts 179°
2026-04-21 16:27 -4.58102 55.46363 2182 ft 170 kts 179°
2026-04-21 16:27 -4.59257 55.46347 1964 ft 161 kts 182°
2026-04-21 16:28 -4.60350 55.46278 1713 ft 159 kts 183°
2026-04-21 16:28 -4.61462 55.46249 1396 ft 159 kts 174°
2026-04-21 16:28 -4.61670 55.46271 1334 ft 158 kts 171°
2026-04-21 16:29 -4.62137 55.46351 1181 ft 156 kts 168°
2026-04-21 16:29 -4.63138 55.46655 932 ft 148 kts 156°
2026-04-21 16:29 -4.64005 55.47242 818 ft 153 kts 131°
2026-04-21 16:30 -4.64632 55.48105 776 ft 154 kts 123°
2026-04-21 16:30 -4.65246 55.49006 604 ft 160 kts 124°
2026-04-21 16:30 -4.65859 55.49935 313 ft 157 kts 124°
2026-04-21 16:30 -4.66479 55.50804 148 ft 153 kts 128°
2026-04-21 16:31 -4.67099 55.51684 36 ft 151 kts 126°
2026-04-21 16:31 -4.67627 55.52456 26 ft 114 kts 124°
2026-04-21 16:31 -4.67970 55.52954 27 ft 60 kts 124°
2026-04-21 16:31 -4.68110 55.53140 27 ft 9 kts 149°
2026-04-21 16:32 -4.68209 55.53167 28 ft 16 kts 167°
2026-04-21 16:32 -4.68253 55.53231 31 ft 9 kts 61°
2026-04-21 16:32 -4.68198 55.53260 27 ft 9 kts 351°
2026-04-21 16:32 -4.68164 55.53235 27 ft 10 kts 308°
2026-04-21 16:33 -4.68111 55.53159 27 ft 15 kts 304°
2026-04-21 16:33 -4.68049 55.53069 28 ft 17 kts 305°
2026-04-21 16:33 -4.67964 55.52945 26 ft 27 kts 304°
2026-04-21 16:33 -4.67853 55.52784 28 ft 28 kts 305°
2026-04-21 16:34 -4.67741 55.52622 28 ft 28 kts 304°
2026-04-21 16:34 -4.67629 55.52460 30 ft 28 kts 304°
2026-04-21 16:34 -4.67519 55.52297 26 ft 28 kts 304°
2026-04-21 16:34 -4.67408 55.52135 28 ft 28 kts 305°
2026-04-21 16:35 -4.67297 55.51972 27 ft 28 kts 305°
2026-04-21 16:35 -4.67185 55.51811 27 ft 28 kts 303°
2026-04-21 16:35 -4.67073 55.51650 29 ft 28 kts 305°
2026-04-21 16:35 -4.66960 55.51489 26 ft 28 kts 305°
2026-04-21 16:36 -4.66905 55.51394 26 ft 8 kts 277°
2026-04-21 16:36 -4.66932 55.51347 28 ft 9 kts 221°
2026-04-21 16:36 -4.66970 55.51318 28 ft 6 kts 217°
2026-04-21 16:36 -4.66994 55.51296 30 ft 5 kts 228°
2026-04-21 16:37 -4.67007 55.51280 28 ft 2 kts 231°
2026-04-21 16:37 -4.67015 55.51272 28 ft 2 kts 220°
2026-04-21 16:37 -4.67029 55.51262 28 ft 4 kts 217°
2026-04-21 16:37 -4.67054 55.51243 30 ft 5 kts 215°
2026-04-21 16:38 -4.67072 55.51231 31 ft 1 kts 214°
2026-04-21 16:38 -4.67077 55.51228 28 ft 0 kts 214°
2026-04-21 16:38 -4.67082 55.51224 28 ft 1 kts 214°
2026-04-21 16:38 -4.67080 55.51226 28 ft 6 kts 214°
2026-04-21 16:39 -4.67070 55.51233 31 ft 3 kts 214°
2026-04-21 16:39 -4.67074 55.51230 31 ft 0 kts 214°